Lihue, HI

4:54 AM HST on April 24, 2017 (GMT -1000)
Lihue

Weather History for PHLI - March, 2015

Change the Weather History Date:

Monday, March 23, 2015

  Actual Average Record
Temperature  
Mean Temperature 78 °F 73 °F  
Max Temperature 82 °F 79 °F 83 °F (1961)
Min Temperature 73 °F 68 °F 55 °F (1954)
Degree Days  
Heating Degree Days 0 0  
Month to date heating degree days 0 0  
Since 1 July heating degree days 0 0  
Cooling Degree Days 13 8  
Month to date cooling degree days 174 172  
Year to date cooling degree days 630 567  
Growing Degree Days 26 (Base 50)    
Moisture  
Dew Point 66 °F    
Average Humidity 71    
Maximum Humidity 79    
Minimum Humidity 62    
Precipitation  
Precipitation 0.00 in 0.16 in 1.92 in (1997)
Month to date precipitation 0.83 3.44  
Year to date precipitation 2.74 10.35  
Snow  
Snow 0.00 in - - ()
Month to date snowfall 0.0  
Since 1 July snowfall 0.0  
Snow Depth 0.00 in    
Sea Level Pressure  
Sea Level Pressure 30.10 in    
Wind  
Wind Speed 11 mph (ENE)    
Max Wind Speed 15 mph    
Max Gust Speed 18 mph    
Visibility 10 miles    
Events      
T = Trace of Precipitation, MM = Missing Value Source: NWS Daily Summary

Daily Weather History Graph

Daily Weather History Graph

Search for Another Location

Airport or City:

Trip Planner

Search our weather history database for the weather conditions in past years. The results will help you decide how hot, cold, wet, or windy it might be!

Date:

Astronomy

Mar. 23, 2015 Rise Set
Actual Time 6:38 AM HST 6:49 PM HST
Civil Twilight 6:16 AM HST 7:11 PM HST
Nautical Twilight 5:50 AM HST 7:37 PM HST
Astronomical Twilight 5:24 AM HST 8:03 PM HST
Moon 9:21 AM HST (3/23) 10:40 PM HST (3/23)
Length of Visible Light 12h 55m
Length of Day
12h 10m
Waxing Crescent, 17% of the Moon is Illuminated
Mar 23
Waxing Crescent
Mar 26
First Quarter
Apr 4
Full
Apr 11
Last Quarter
Apr 18
New

Hourly Weather History & Observations

Time (HST) Temp. Heat Index Dew Point Humidity Pressure Visibility Wind Dir Wind Speed Gust Speed Precip Events Conditions
12:03 AM 75.2 °F - 66.2 °F 73% 30.14 in 10.0 mi East 12.7 mph - N/A   Mostly Cloudy
12:53 AM 75.0 °F - 66.9 °F 76% 30.12 in 10.0 mi East 10.4 mph - N/A   Scattered Clouds
1:04 AM 75.2 °F - 66.2 °F 73% 30.12 in 10.0 mi East 11.5 mph - N/A   Mostly Cloudy
1:53 AM 73.9 °F - 66.0 °F 76% 30.10 in 10.0 mi East 10.4 mph - N/A   Mostly Cloudy
2:38 AM 73.4 °F - 66.2 °F 78% 30.09 in 10.0 mi ENE 10.4 mph - N/A   Scattered Clouds
2:53 AM 73.9 °F - 66.0 °F 76% 30.08 in 10.0 mi ENE 15.0 mph - N/A   Partly Cloudy
3:53 AM 73.9 °F - 66.0 °F 76% 30.07 in 10.0 mi ENE 10.4 mph - N/A   Mostly Cloudy
4:36 AM 73.4 °F - 64.4 °F 73% 30.07 in 10.0 mi ENE 11.5 mph - N/A   Scattered Clouds
4:53 AM 73.9 °F - 64.9 °F 73% 30.07 in 10.0 mi ENE 9.2 mph - N/A   Partly Cloudy
5:53 AM 73.0 °F - 64.9 °F 76% 30.08 in 10.0 mi ENE 10.4 mph - N/A   Scattered Clouds
6:27 AM 73.4 °F - 66.2 °F 78% 30.10 in 10.0 mi ENE 12.7 mph - N/A   Mostly Cloudy
6:53 AM 73.9 °F - 66.0 °F 76% 30.10 in 10.0 mi ENE 11.5 mph - N/A   Mostly Cloudy
7:19 AM 73.4 °F - 66.2 °F 78% 30.10 in 10.0 mi ENE 12.7 mph - N/A   Scattered Clouds
7:44 AM 75.2 °F - 66.2 °F 73% 30.11 in 10.0 mi ENE 11.5 mph - N/A   Mostly Cloudy
7:53 AM 77.0 °F - 66.0 °F 69% 30.11 in 10.0 mi ENE 12.7 mph - N/A   Mostly Cloudy
8:12 AM 75.2 °F - 64.4 °F 69% 30.12 in 10.0 mi ENE 11.5 mph - N/A   Scattered Clouds
8:53 AM 78.1 °F - 66.0 °F 66% 30.12 in 10.0 mi ENE 10.4 mph - N/A   Partly Cloudy
9:53 AM 78.1 °F - 66.0 °F 66% 30.13 in 10.0 mi ENE 12.7 mph - N/A   Scattered Clouds
10:01 AM 78.8 °F - 66.2 °F 65% 30.14 in 10.0 mi ENE 12.7 mph - N/A   Mostly Cloudy
10:30 AM 78.8 °F - 64.4 °F 61% 30.14 in 10.0 mi East 11.5 mph - N/A   Scattered Clouds
10:53 AM 79.0 °F - 66.0 °F 64% 30.13 in 10.0 mi ENE 10.4 mph - N/A   Mostly Cloudy
11:05 AM 78.8 °F - 64.4 °F 61% 30.14 in 10.0 mi ENE 9.2 mph - N/A   Mostly Cloudy
11:26 AM 78.8 °F - 66.2 °F 65% 30.14 in 10.0 mi ENE 9.2 mph - N/A   Mostly Cloudy
11:38 AM 80.6 °F 82.7 °F 66.2 °F 61% 30.13 in 10.0 mi East 11.5 mph - N/A   Mostly Cloudy
11:53 AM 80.1 °F 82.1 °F 66.0 °F 62% 30.12 in 10.0 mi East 9.2 mph - N/A   Mostly Cloudy
12:53 PM 80.1 °F 82.3 °F 66.9 °F 64% 30.10 in 10.0 mi ENE 8.1 mph - N/A   Partly Cloudy
1:53 PM 80.1 °F 82.3 °F 66.9 °F 64% 30.06 in 10.0 mi East 8.1 mph - N/A   Clear
2:53 PM 80.1 °F 82.1 °F 66.0 °F 62% 30.05 in 10.0 mi East 6.9 mph - N/A   Clear
3:53 PM 80.1 °F 82.1 °F 66.0 °F 62% 30.04 in 10.0 mi East 6.9 mph - N/A   Scattered Clouds
4:53 PM 78.1 °F - 66.0 °F 66% 30.05 in 10.0 mi East 6.9 mph - N/A   Scattered Clouds
5:53 PM 75.9 °F - 66.0 °F 71% 30.05 in 10.0 mi East 5.8 mph - N/A   Partly Cloudy
6:35 PM 75.2 °F - 66.2 °F 73% 30.07 in 10.0 mi East 5.8 mph - N/A   Mostly Cloudy
6:53 PM 75.9 °F - 66.0 °F 71% 30.07 in 10.0 mi East 5.8 mph - N/A   Mostly Cloudy
7:07 PM 75.2 °F - 66.2 °F 73% 30.08 in 10.0 mi East 5.8 mph - N/A   Scattered Clouds
7:53 PM 75.0 °F - 66.0 °F 73% 30.09 in 10.0 mi East 6.9 mph - N/A   Scattered Clouds
8:53 PM 75.0 °F - 66.0 °F 73% 30.12 in 10.0 mi East 4.6 mph - N/A   Scattered Clouds
9:43 PM 75.2 °F - 66.2 °F 73% 30.13 in 10.0 mi East 4.6 mph - N/A   Mostly Cloudy
9:53 PM 75.0 °F - 66.0 °F 73% 30.13 in 10.0 mi East 5.8 mph - N/A   Scattered Clouds
10:38 PM 73.4 °F - 66.2 °F 78% 30.14 in 10.0 mi WSW 3.5 mph - N/A   Mostly Cloudy
10:53 PM 72.0 °F - 66.0 °F 81% 30.13 in 10.0 mi West 3.5 mph - N/A   Mostly Cloudy
11:23 PM 71.6 °F - 66.2 °F 83% 30.13 in 10.0 mi West 5.8 mph - N/A   Scattered Clouds
11:38 PM 71.6 °F - 64.4 °F 78% 30.13 in 10.0 mi SW 5.8 mph - N/A   Mostly Cloudy
11:49 PM 71.6 °F - 64.4 °F 78% 30.13 in 10.0 mi West 6.9 mph - N/A   Scattered Clouds
11:53 PM 71.1 °F - 66.0 °F 84% 30.12 in 10.0 mi West 5.8 mph - N/A   Scattered Clouds